EW5833 Weather Reports


Display with metric or nautical units.
time (UTC)temp
F
wind
direction
speed
MPH
gust
MPH
rain 1hr
in
rain 24hr
in
rain mn
in
humidity
%
barometer
mb
20260509030717 46 0 0.0 2.0 0.00 0.04 0.04 87 1006.9
20260509030206 47 0 0.0 2.0 0.00 0.04 0.04 85 1007.0
20260509025929 47 0 0.0 2.0 0.00 0.04 0.04 85 1007.0
20260509025200 47 0 0.0 0.0 0.00 0.04 0.04 84 1007.0
20260509024929 47 0 0.0 0.0 0.00 0.04 0.04 84 1007.0
20260509023720 48 0 0.0 0.0 0.00 0.04 0.04 81 1007.1
20260509022711 49 0 0.0 0.0 0.00 0.04 0.04 79 1007.0
20260509021710 49 0 0.0 0.0 0.00 0.04 0.04 76 1007.1
20260509020708 50 0 0.0 0.0 0.00 0.04 0.04 73 1007.0
20260509015709 51 0 0.0 0.0 0.00 0.04 0.04 73 1007.0
20260509014711 52 0 0.0 2.0 0.00 0.04 0.04 70 1006.9
20260509014149 52 318 0.0 2.0 0.00 0.04 0.04 68 1006.7
20260509013957 53 0 0.0 1.0 0.00 0.04 0.04 64 1006.6
20260509013918 52 318 0.0 2.0 0.00 0.04 0.04 68 1006.7
20260509013535 53 0 0.0 1.0 0.00 0.04 0.04 64 1006.6
20260509011708 54 0 0.0 1.0 0.00 0.04 0.04 61 1006.4
20260509010707 55 0 0.0 2.0 0.00 0.04 0.04 58 1006.3
20260509005709 55 0 0.0 1.0 0.00 0.04 0.04 50 1006.2
20260509004707 56 0 0.0 2.0 0.00 0.04 0.04 44 1006.1
20260509003705 57 278 0.0 2.0 0.00 0.04 0.04 40 1006.1
20260509003143 58 0 0.0 1.0 0.00 0.04 0.04 41 1006.1
20260509002705 58 0 0.0 1.0 0.00 0.04 0.04 41 1006.1
20260509001705 59 0 0.0 2.0 0.00 0.04 0.04 37 1006.0
20260509000706 59 0 0.0 2.0 0.00 0.04 0.04 39 1005.9
20260509000636 60 0 0.0 2.0 0.00 0.04 0.04 40 1006.0
20260508235705 60 0 0.0 2.0 0.00 0.04 0.04 40 1006.0
20260508235147 61 0 0.0 2.0 0.00 0.04 0.04 37 1006.0
20260508234706 61 0 0.0 2.0 0.00 0.04 0.04 37 1006.0
20260508234141 61 0 1.0 4.0 0.00 0.04 0.04 35 1006.0
20260508233705 61 0 1.0 4.0 0.00 0.04 0.04 35 1006.0
20260508233624 62 289 2.0 6.0 0.00 0.04 0.04 34 1005.9
20260508232913 62 289 2.0 6.0 0.00 0.04 0.04 34 1005.9
20260508231703 62 226 2.0 5.0 0.00 0.04 0.04 34 1006.0
20260508230703 63 224 0.0 4.0 0.00 0.04 0.04 35 1006.0
20260508230136 63 0 1.0 5.0 0.00 0.04 0.04 34 1006.1
20260508225913 63 0 1.0 5.0 0.00 0.04 0.04 34 1006.1
20260508225615 63 138 1.0 7.0 0.00 0.04 0.04 34 1006.1
20260508224911 63 138 1.0 7.0 0.00 0.04 0.04 34 1006.1
20260508224139 62 244 1.0 4.0 0.00 0.04 0.04 34 1006.2
20260508223911 62 244 1.0 4.0 0.00 0.04 0.04 34 1006.2
20260508222702 62 278 1.0 4.0 0.00 0.04 0.04 34 1006.2
20260508221702 63 0 1.0 6.0 0.00 0.04 0.04 32 1006.3
20260508220701 64 219 2.0 9.0 0.00 0.04 0.04 31 1006.2
20260508220138 64 264 1.0 5.0 0.00 0.04 0.04 32 1006.3
20260508215701 64 264 1.0 5.0 0.00 0.04 0.04 32 1006.3
20260508215145 64 232 1.0 6.0 0.00 0.04 0.04 31 1006.4
20260508214912 64 232 1.0 6.0 0.00 0.04 0.04 31 1006.4
20260508213703 64 205 2.0 4.0 0.00 0.04 0.04 34 1006.5
20260508212704 64 247 2.0 7.0 0.00 0.04 0.04 31 1006.5
20260508211702 64 198 2.0 6.0 0.00 0.04 0.04 31 1006.4
20260508210702 64 234 2.0 7.0 0.00 0.04 0.04 31 1006.6
20260508210146 63 226 2.0 7.0 0.00 0.04 0.04 33 1006.6
20260508205702 63 226 2.0 7.0 0.00 0.04 0.04 33 1006.6
20260508205140 63 0 2.0 6.0 0.00 0.04 0.04 33 1006.7
20260508204914 63 0 2.0 6.0 0.00 0.04 0.04 33 1006.7
20260508203701 63 0 2.0 6.0 0.00 0.04 0.04 33 1007.1
20260508202701 63 279 3.0 10.0 0.00 0.04 0.04 33 1007.1
20260508202138 63 261 2.0 9.0 0.00 0.04 0.04 35 1007.3
20260508201701 63 261 2.0 9.0 0.00 0.04 0.04 35 1007.3
20260508200702 63 302 2.0 8.0 0.00 0.04 0.04 32 1007.5
20260508195702 63 202 2.0 9.0 0.00 0.04 0.04 33 1007.6
20260508194702 63 311 1.0 4.0 0.00 0.04 0.04 35 1007.7
20260508194141 62 324 1.0 4.0 0.00 0.04 0.04 33 1007.9
20260508193914 62 324 1.0 4.0 0.00 0.04 0.04 33 1007.9
20260508193145 62 258 3.0 7.0 0.00 0.04 0.04 30 1008.0
20260508192914 62 258 3.0 7.0 0.00 0.04 0.04 30 1008.0
20260508192155 62 318 3.0 8.0 0.00 0.04 0.04 31 1008.0
20260508191701 62 318 3.0 8.0 0.00 0.04 0.04 31 1008.0
20260508190705 62 150 2.0 6.0 0.00 0.04 0.04 32 1008.1
20260508185703 62 70 2.0 9.0 0.00 0.04 0.04 31 1008.2
20260508185630 62 206 2.0 5.0 0.00 0.04 0.04 33 1008.4
20260508184913 62 206 2.0 5.0 0.00 0.04 0.04 33 1008.4
20260508184154 62 233 1.0 7.0 0.00 0.04 0.04 31 1008.5
20260508183702 62 233 1.0 7.0 0.00 0.04 0.04 31 1008.5
20260508182700 62 223 2.0 6.0 0.00 0.04 0.04 32 1008.5
20260508182134 61 228 3.0 8.0 0.00 0.04 0.04 33 1008.6
20260508181913 61 228 3.0 8.0 0.00 0.04 0.04 33 1008.6
20260508181434 60 315 4.0 12.0 0.00 0.04 0.04 32 1008.8
20260508181246 60 208 3.0 7.0 0.00 0.04 0.04 32 1008.7
20260508180913 60 208 3.0 7.0 0.00 0.04 0.04 32 1008.7
20260508180525 60 315 4.0 12.0 0.00 0.04 0.04 32 1008.8
20260508175159 60 0 4.0 12.0 0.00 0.04 0.04 35 1009.0
20260508174701 60 0 4.0 12.0 0.00 0.04 0.04 35 1009.0
20260508174626 61 318 3.0 9.0 0.00 0.04 0.04 34 1009.2
20260508173911 61 318 3.0 9.0 0.00 0.04 0.04 34 1009.2
20260508172701 60 234 2.0 8.0 0.00 0.04 0.04 35 1009.3
20260508171701 60 0 2.0 7.0 0.00 0.04 0.04 35 1009.5
20260508170702 60 118 2.0 7.0 0.00 0.04 0.04 36 1009.6
20260508165700 59 260 3.0 11.0 0.00 0.04 0.04 35 1009.8
20260508164702 59 188 3.0 7.0 0.00 0.04 0.04 33 1009.9
20260508164140 58 341 2.0 7.0 0.00 0.04 0.04 33 1010.1
20260508163913 58 341 2.0 7.0 0.00 0.04 0.04 33 1010.1
20260508163155 58 316 2.0 5.0 0.00 0.04 0.04 33 1010.2
20260508162702 58 316 2.0 5.0 0.00 0.04 0.04 33 1010.2
20260508161700 58 199 3.0 6.0 0.00 0.04 0.04 37 1010.3
20260508160703 58 329 2.0 8.0 0.00 0.04 0.04 37 1010.3
20260508160139 58 200 2.0 7.0 0.00 0.04 0.04 34 1010.4
20260508155703 58 200 2.0 7.0 0.00 0.04 0.04 34 1010.4
20260508154701 58 139 2.0 6.0 0.00 0.04 0.04 38 1010.3
20260508154628 57 0 2.0 7.0 0.00 0.04 0.04 38 1010.4
20260508153701 57 0 2.0 7.0 0.00 0.04 0.04 38 1010.4
20260508152703 58 122 2.0 6.0 0.00 0.04 0.04 39 1010.4
20260508151702 56 149 1.0 6.0 0.00 0.04 0.04 41 1010.6
20260508150702 57 152 2.0 7.0 0.00 0.04 0.04 42 1010.7
20260508150147 57 125 1.0 5.0 0.00 0.04 0.04 40 1010.7
20260508145701 57 125 1.0 5.0 0.00 0.04 0.04 40 1010.7
20260508144702 56 121 1.0 6.0 0.00 0.04 0.04 45 1010.8
20260508143703 55 0 1.0 5.0 0.00 0.04 0.04 42 1010.8
20260508142702 54 0 2.0 6.0 0.00 0.04 0.04 46 1010.8
20260508142152 53 143 3.0 6.0 0.00 0.04 0.04 47 1011.0
20260508141701 53 143 3.0 6.0 0.00 0.04 0.04 47 1011.0
20260508140702 54 106 1.0 6.0 0.00 0.04 0.04 46 1011.0
20260508135704 53 127 2.0 6.0 0.00 0.04 0.04 41 1011.0
20260508135158 52 263 3.0 7.0 0.00 0.04 0.04 47 1011.1
20260508134704 52 263 3.0 7.0 0.00 0.04 0.04 47 1011.1
20260508133704 52 348 2.0 6.0 0.00 0.04 0.04 55 1011.0
20260508133546 52 288 1.0 4.0 0.00 0.04 0.04 53 1011.0
20260508132842 51 282 2.0 8.0 0.00 0.04 0.04 57 1011.0
20260508131703 52 288 1.0 4.0 0.00 0.04 0.04 53 1011.0
20260508130702 51 343 2.0 5.0 0.00 0.04 0.04 59 1011.0
20260508125702 50 105 1.0 4.0 0.00 0.04 0.04 58 1011.1
20260508125153 49 0 1.0 4.0 0.00 0.04 0.04 67 1011.2
20260508124703 49 0 1.0 4.0 0.00 0.04 0.04 67 1011.2
20260508123704 48 0 1.0 3.0 0.00 0.04 0.04 67 1011.0
20260508122703 47 125 2.0 4.0 0.00 0.04 0.04 69 1010.9
20260508121702 45 149 1.0 3.0 0.00 0.04 0.04 72 1010.9
20260508121146 44 137 1.0 2.0 0.00 0.04 0.04 81 1010.7
20260508120703 44 137 1.0 2.0 0.00 0.04 0.04 81 1010.7
20260508115702 42 135 0.0 2.0 0.00 0.04 0.04 95 1010.6
20260508115355 40 0 0.0 1.0 0.00 0.04 0.04 98 1010.6
20260508115240 40 0 0.0 1.0 0.00 0.04 0.04 98 1010.6
20260508113703 39 0 0.0 0.0 0.00 0.04 0.04 99 1010.5
20260508112703 37 0 0.0 0.0 0.00 0.04 0.04 99 1010.4
20260508111703 35 0 0.0 0.0 0.00 0.04 0.04 99 1010.5
20260508111617 35 0 0.0 0.0 0.00 0.04 0.04 99 1010.4
20260508110702 35 0 0.0 0.0 0.00 0.04 0.04 99 1010.4
20260508105701 34 0 0.0 0.0 0.00 0.04 0.04 99 1010.4
20260508104701 34 0 0.0 0.0 0.00 0.04 0.04 99 1010.4
20260508103702 34 0 0.0 0.0 0.00 0.04 0.04 99 1010.4
20260508102702 34 0 0.0 0.0 0.00 0.04 0.04 99 1010.4
20260508101702 34 0 0.0 0.0 0.00 0.04 0.04 99 1010.4
20260508100701 35 0 0.0 0.0 0.00 0.04 0.04 99 1010.4
20260508095702 35 0 0.0 0.0 0.00 0.04 0.04 99 1010.4
20260508095618 35 0 0.0 1.0 0.00 0.04 0.04 100 1010.5
20260508094702 35 0 0.0 1.0 0.00 0.04 0.04 100 1010.5
20260508093703 35 0 0.0 1.0 0.00 0.04 0.04 100 1010.6
20260508092703 35 0 0.0 0.0 0.00 0.04 0.04 100 1010.6
20260508092135 35 0 0.0 0.0 0.00 0.04 0.04 100 1010.7
20260508091912 35 0 0.0 0.0 0.00 0.04 0.04 100 1010.7
20260508091354 35 0 0.0 0.0 0.00 0.04 0.04 99 1010.7
20260508091235 35 0 0.0 0.0 0.00 0.04 0.04 99 1010.7
20260508090619 36 0 0.0 0.0 0.00 0.04 0.04 99 1010.7
20260508085701 36 0 0.0 0.0 0.00 0.04 0.04 99 1010.7
20260508085139 36 0 0.0 0.0 0.00 0.04 0.04 99 1010.8
20260508084701 36 0 0.0 0.0 0.00 0.04 0.04 99 1010.8
20260508083700 36 0 0.0 0.0 0.00 0.04 0.04 99 1010.8
20260508082703 37 0 0.0 0.0 0.00 0.04 0.04 98 1010.7
20260508081702 37 0 0.0 0.0 0.00 0.04 0.04 98 1010.7
20260508080702 37 0 0.0 2.0 0.00 0.04 0.04 98 1010.6
20260508075701 38 0 0.0 2.0 0.00 0.04 0.04 97 1010.6
20260508074703 38 0 0.0 1.0 0.00 0.04 0.04 97 1010.7
20260508073701 39 0 0.0 0.0 0.00 0.04 0.04 97 1010.6
20260508073145 39 0 0.0 0.0 0.00 0.04 0.04 96 1010.4
20260508072913 39 0 0.0 0.0 0.00 0.04 0.04 96 1010.4
20260508072623 39 0 0.0 0.0 0.00 0.04 0.04 95 1010.5
20260508071913 39 0 0.0 0.0 0.00 0.04 0.04 95 1010.5
20260508070701 39 0 0.0 2.0 0.00 0.04 0.04 94 1010.5
20260508065701 40 0 0.0 2.0 0.00 0.04 0.04 93 1010.7
20260508064701 40 0 1.0 4.0 0.00 0.04 0.04 92 1010.7
20260508063701 39 332 1.0 4.0 0.03 0.03 0.03 93 1011.2
20260508062701 39 0 0.0 0.0 0.03 0.03 0.03 92 1011.1
20260508062141 40 0 0.0 0.0 0.03 0.03 0.03 92 1011.0
20260508061702 40 0 0.0 0.0 0.03 0.03 0.03 92 1011.0
20260508060702 40 0 0.0 2.0 0.03 0.03 0.03 90 1011.0
20260508055701 41 357 2.0 5.0 0.03 0.03 0.03 86 1011.2
20260508054701 42 111 2.0 6.0 0.03 0.03 0.02 78 1010.6
20260508053702 42 0 0.0 2.0 0.00 0.00 0.00 78 1011.1
20260508052702 42 348 1.0 2.0 0.00 0.00 0.00 77 1011.0
20260508051701 42 0 1.0 3.0 0.00 0.00 0.00 78 1011.1
20260508050701 41 0 0.0 0.0 0.00 0.00 0.00 75 1011.3
20260508050145 42 0 0.0 2.0 0.00 0.00 0.00 75 1011.3
20260508045914 42 0 0.0 2.0 0.00 0.00 0.00 75 1011.3
20260508044701 42 100 0.0 3.0 0.00 0.00 0.00 75 1011.1
20260508043702 41 0 0.0 0.0 0.00 0.00 0.00 78 1011.4
20260508042701 42 0 0.0 0.0 0.00 0.00 0.00 77 1011.3
20260508041703 42 0 0.0 2.0 0.00 0.00 0.00 74 1011.1
20260508040703 41 333 0.0 4.0 0.00 0.00 0.00 76 1010.9
20260508035703 42 0 0.0 0.0 0.00 0.00 0.00 72 1010.8
20260508035143 42 0 0.0 1.0 0.00 0.00 0.00 70 1010.9
20260508034703 42 0 0.0 1.0 0.00 0.00 0.00 70 1010.9
20260508034147 42 0 0.0 0.0 0.00 0.00 0.00 74 1010.9
20260508033914 42 0 0.0 0.0 0.00 0.00 0.00 74 1010.9
20260508033148 42 0 0.0 0.0 0.00 0.00 0.00 72 1010.7
20260508032958 42 0 0.0 1.0 0.00 0.00 0.00 73 1010.9
20260508032914 42 0 0.0 0.0 0.00 0.00 0.00 72 1010.7
20260508032530 42 0 0.0 1.0 0.00 0.00 0.00 73 1010.9